Paso Robles, CA

2:15 PM PST on December 08, 2019 (GMT -0800)
Paso Robles Municipal

Weather History for KPRB - October, 2019

Change the Weather History Date:

Monday, October 14, 2019

  Actual Average Record
Temperature  
Mean Temperature 59 °F 62 °F  
Max Temperature 82 °F 80 °F 100 °F (1991)
Min Temperature 36 °F 45 °F 31 °F (1981)
Degree Days  
Heating Degree Days 6 4  
Month to date heating degree days 40  
Since 1 July heating degree days 72  
Cooling Degree Days 0 1  
Month to date cooling degree days 28  
Year to date cooling degree days 919  
Growing Degree Days 9 (Base 50)    
Moisture  
Dew Point 28 °F    
Average Humidity 40    
Maximum Humidity 74    
Minimum Humidity 9    
Precipitation  
Precipitation 0.00 in 0.02 in 0.17 in (1968)
Month to date precipitation 0.19  
Year to date precipitation 9.31  
Sea Level Pressure  
Sea Level Pressure 29.95 in    
Wind  
Wind Speed 2 mph ()    
Max Wind Speed 12 mph    
Max Gust Speed -    
Visibility 10.0 miles    
Events      
T = Trace of Precipitation, MM = Missing Value Source: Averaged Metar Reports

Daily Weather History Graph

Daily Weather History Graph

Search for Another Location

Airport or City:

Astronomy

Oct. 14, 2019 Rise Set
Actual Time 7:08 AM PDT 6:28 PM PDT
Civil Twilight 6:42 AM PDT 6:54 PM PDT
Nautical Twilight 6:12 AM PDT 7:23 PM PDT
Astronomical Twilight 5:43 AM PDT 7:53 PM PDT
Moon 7:21 PM PDT (10/14) 7:45 AM PDT (10/14)
Length of Visible Light 12h 11m
Length of Day
11h 20m
Full, 99% of the Moon is Illuminated
Oct 14
Full
Oct 21
Last Quarter
Oct 27
New
Nov 4
First Quarter
Nov 12
Full

Hourly Weather History & Observations

Time (PDT) Temp. Windchill Dew Point Humidity Pressure Visibility Wind Dir Wind Speed Gust Speed Precip Events Conditions
12:53 AM 46.9 °F - 28.9 °F 50% 29.89 in 10.0 mi Calm Calm - N/A   Clear
1:53 AM 43.0 °F - 27.0 °F 53% 29.91 in 10.0 mi Calm Calm - N/A   Clear
2:53 AM 39.0 °F 36.8 °F 25.0 °F 57% 29.91 in 10.0 mi SSE 3.5 mph - N/A   Clear
3:53 AM 37.9 °F 35.5 °F 24.1 °F 57% 29.92 in 10.0 mi ESE 3.5 mph - N/A   Clear
4:53 AM 37.9 °F - 26.1 °F 62% 29.93 in 10.0 mi Calm Calm - N/A   Clear
5:53 AM 37.0 °F - 25.0 °F 62% 29.94 in 10.0 mi Calm Calm - N/A   Clear
6:53 AM 36.0 °F - 26.1 °F 67% 29.96 in 10.0 mi Calm Calm - N/A   Clear
7:53 AM 37.0 °F - 25.0 °F 62% 29.98 in 10.0 mi Calm Calm - N/A   Clear
8:53 AM 45.0 °F - 24.1 °F 44% 29.99 in 10.0 mi Calm Calm - N/A   Clear
9:53 AM 51.1 °F - 27.0 °F 39% 29.99 in 10.0 mi Calm Calm - N/A   Clear
10:53 AM 59.0 °F - 27.0 °F 29% 29.98 in 10.0 mi Calm Calm - N/A   Clear
11:53 AM 64.9 °F - 25.0 °F 22% 29.97 in 10.0 mi Calm Calm - N/A   Clear
12:53 PM 72.0 °F - 26.1 °F 18% 29.94 in 10.0 mi West 4.6 mph - N/A   Clear
1:53 PM 77.0 °F - 25.0 °F 15% 29.92 in 10.0 mi Calm Calm - N/A   Clear
2:53 PM 80.1 °F - 19.9 °F 11% 29.91 in 10.0 mi WNW 3.5 mph - N/A   Clear
3:53 PM 81.0 °F - 17.1 °F 9% 29.90 in 10.0 mi Variable 4.6 mph - N/A   Clear
4:53 PM 82.0 °F - 19.9 °F 10% 29.90 in 10.0 mi NW 5.8 mph - N/A   Clear
5:53 PM 80.1 °F - 19.9 °F 11% 29.91 in 10.0 mi NNW 4.6 mph - N/A   Clear
6:53 PM 71.1 °F - 36.0 °F 28% 29.94 in 10.0 mi WSW 5.8 mph - N/A   Clear
7:53 PM 66.0 °F - 32.0 °F 28% 29.97 in 10.0 mi WNW 11.5 mph - N/A   Clear
8:53 PM 61.0 °F - 37.0 °F 41% 29.98 in 10.0 mi NW 5.8 mph - N/A   Clear
9:53 PM 57.0 °F - 41.0 °F 55% 30.01 in 10.0 mi Calm Calm - N/A   Clear
10:53 PM 54.0 °F - 43.0 °F 66% 30.02 in 10.0 mi NW 5.8 mph - N/A   Clear
11:53 PM 51.1 °F - 43.0 °F 74% 30.03 in 10.0 mi Calm Calm - N/A   Clear